• In Uzbekistan
  • List of Countries
  • For 7 days
  • Water Temperature
  • Satellite Maps
  • Weather Map
  • Weather Widgets
  • user-avatar
    Login

    Hourly Weather Skagen

    Today, 19 September, Tuesday

    Time Temperature Precipitation Wind Pressure Humidity
    00:00 +11°C° 0 mm 6 mps 758 mmHg 87%
    01:00 +11°C° 0 mm 7 mps 757 mmHg 87%
    02:00 +11°C° 0.3 mm 7 mps 757 mmHg 86%
    03:00 +11°C° 0.3 mm 6 mps 757 mmHg 85%
    04:00 +13°C° 0.3 mm 6 mps 757 mmHg 84%
    05:00 +12°C° 0.6 mm 5 mps 757 mmHg 85%
    06:00 +12°C° 0.6 mm 5 mps 757 mmHg 87%
    07:00 +12°C° 0.6 mm 4 mps 756 mmHg 89%
    08:00 +12°C° 0.4 mm 4 mps 757 mmHg 88%
    09:00 +13°C° 0.4 mm 4 mps 757 mmHg 88%
    10:00 +13°C° 0.4 mm 4 mps 757 mmHg 88%
    11:00 +13°C° 0.2 mm 4 mps 757 mmHg 86%
    12:00 +13°C° 0.2 mm 4 mps 757 mmHg 85%
    13:00 +13°C° 0.2 mm 4 mps 758 mmHg 84%
    14:00 +13°C° 0.1 mm 5 mps 758 mmHg 83%
    15:00 +14°C° 0.1 mm 5 mps 758 mmHg 82%
    16:00 +14°C° 0.1 mm 5 mps 758 mmHg 81%
    17:00 +13°C° 0 mm 5 mps 758 mmHg 83%
    18:00 +12°C° 0 mm 5 mps 758 mmHg 85%
    19:00 +11°C° 0 mm 6 mps 758 mmHg 86%
    20:00 +10°C° 0 mm 6 mps 759 mmHg 87%
    21:00 +10°C° 0 mm 6 mps 759 mmHg 87%
    22:00 +10°C° 0 mm 6 mps 759 mmHg 88%
    23:00 +10°C° 0 mm 5 mps 759 mmHg 88%

    Tomorrow, 20 September, Wednesday

    Time Temperature Precipitation Wind Pressure Humidity
    00:00 +10°C° 0 mm 5 mps 759 mmHg 88%
    01:00 +9°C° 0 mm 5 mps 760 mmHg 88%
    02:00 +9°C° 0 mm 5 mps 760 mmHg 88%
    03:00 +9°C° 0 mm 5 mps 760 mmHg 88%
    04:00 +9°C° 0 mm 5 mps 760 mmHg 89%
    05:00 +9°C° 0 mm 5 mps 760 mmHg 89%
    06:00 +9°C° 0 mm 5 mps 760 mmHg 89%
    07:00 +9°C° 0 mm 5 mps 760 mmHg 89%
    08:00 +10°C° 0 mm 5 mps 761 mmHg 84%
    09:00 +12°C° 0 mm 4 mps 761 mmHg 79%
    10:00 +12°C° 0 mm 4 mps 761 mmHg 74%
    11:00 +13°C° 0 mm 4 mps 761 mmHg 71%
    12:00 +14°C° 0 mm 4 mps 761 mmHg 68%
    13:00 +14°C° 0 mm 4 mps 761 mmHg 66%
    14:00 +16°C° 0 mm 3 mps 761 mmHg 66%
    15:00 +16°C° 0 mm 3 mps 761 mmHg 67%
    16:00 +16°C° 0 mm 3 mps 761 mmHg 68%
    17:00 +14°C° 0 mm 3 mps 761 mmHg 73%
    18:00 +12°C° 0 mm 3 mps 762 mmHg 78%
    19:00 +11°C° 0 mm 4 mps 762 mmHg 83%
    20:00 +11°C° 0 mm 4 mps 762 mmHg 85%
    21:00 +10°C° 0 mm 5 mps 762 mmHg 86%
    22:00 +10°C° 0 mm 5 mps 763 mmHg 88%
    23:00 +10°C° 0.1 mm 5 mps 763 mmHg 89%

    Day after tomorrow, 21 September, Thursday

    Time Temperature Precipitation Wind Pressure Humidity
    00:00 +10°C° 0.1 mm 5 mps 763 mmHg 91%
    01:00 +10°C° 0.1 mm 5 mps 764 mmHg 92%
    02:00 +10°C° 0.1 mm 5 mps 764 mmHg 93%
    03:00 +10°C° 0.1 mm 5 mps 764 mmHg 93%
    04:00 +10°C° 0.1 mm 4 mps 764 mmHg 94%
    05:00 +11°C° 0 mm 4 mps 764 mmHg 93%
    06:00 +11°C° 0 mm 4 mps 765 mmHg 92%
    07:00 +11°C° 0 mm 4 mps 765 mmHg 91%
    08:00 +12°C° 0 mm 4 mps 765 mmHg 86%
    09:00 +13°C° 0 mm 4 mps 766 mmHg 81%
    10:00 +14°C° 0 mm 4 mps 766 mmHg 76%
    11:00 +15°C° 0 mm 4 mps 766 mmHg 73%
    12:00 +17°C° 0 mm 4 mps 766 mmHg 70%
    13:00 +17°C° 0 mm 4 mps 766 mmHg 66%
    14:00 +17°C° 0 mm 4 mps 766 mmHg 67%
    15:00 +17°C° 0 mm 4 mps 766 mmHg 68%
    16:00 +17°C° 0 mm 4 mps 767 mmHg 69%
    17:00 +15°C° 0 mm 4 mps 767 mmHg 76%
    18:00 +14°C° 0 mm 4 mps 767 mmHg 83%
    19:00 +13°C° 0 mm 4 mps 767 mmHg 90%
    20:00 +12°C° 0 mm 4 mps 767 mmHg 91%
    21:00 +12°C° 0 mm 4 mps 768 mmHg 91%
    22:00 +12°C° 0 mm 4 mps 768 mmHg 92%
    23:00 +12°C° 0 mm 4 mps 768 mmHg 91%

    22 September, Friday

    Time Temperature Precipitation Wind Pressure Humidity
    00:00 +11°C° 0 mm 4 mps 768 mmHg 91%
    01:00 +11°C° 0 mm 4 mps 768 mmHg 90%
    02:00 +11°C° 0 mm 4 mps 768 mmHg 91%
    03:00 +11°C° 0 mm 4 mps 768 mmHg 91%
    04:00 +11°C° 0 mm 4 mps 768 mmHg 92%
    05:00 +11°C° 0 mm 4 mps 768 mmHg 92%
    06:00 +11°C° 0 mm 4 mps 768 mmHg 92%
    07:00 +11°C° 0 mm 4 mps 769 mmHg 93%
    08:00 +13°C° 0 mm 4 mps 769 mmHg 87%
    09:00 +14°C° 0 mm 4 mps 769 mmHg 80%
    10:00 +16°C° 0 mm 3 mps 769 mmHg 74%
    11:00 +17°C° 0 mm 3 mps 769 mmHg 71%
    12:00 +17°C° 0 mm 3 mps 769 mmHg 68%
    13:00 +18°C° 0 mm 3 mps 769 mmHg 65%
    14:00 +18°C° 0 mm 3 mps 769 mmHg 67%
    15:00 +18°C° 0 mm 3 mps 769 mmHg 68%
    16:00 +17°C° 0 mm 2 mps 769 mmHg 70%
    17:00 +16°C° 0 mm 2 mps 769 mmHg 75%
    18:00 +15°C° 0 mm 2 mps 769 mmHg 80%
    19:00 +13°C° 0 mm 2 mps 769 mmHg 86%
    20:00 +12°C° 0 mm 3 mps 770 mmHg 84%
    21:00 +12°C° 0 mm 3 mps 770 mmHg 83%
    22:00 +11°C° 0 mm 3 mps 770 mmHg 81%
    23:00 +11°C° 0 mm 3 mps 770 mmHg 82%

    23 September, Saturday

    Time Temperature Precipitation Wind Pressure Humidity
    00:00 +11°C° 0 mm 3 mps 770 mmHg 83%
    01:00 +11°C° 0 mm 3 mps 770 mmHg 84%
    02:00 +11°C° 0 mm 3 mps 770 mmHg 86%
    03:00 +11°C° 0 mm 3 mps 770 mmHg 87%
    04:00 +11°C° 0 mm 3 mps 770 mmHg 88%
    05:00 +11°C° 0 mm 4 mps 770 mmHg 89%
    06:00 +12°C° 0 mm 5 mps 770 mmHg 90%
    07:00 +11°C° 0 mm 6 mps 771 mmHg 91%
    08:00 +13°C° 0 mm 6 mps 771 mmHg 87%
    09:00 +13°C° 0 mm 6 mps 771 mmHg 83%
    10:00 +14°C° 0 mm 6 mps 771 mmHg 78%
    11:00 +14°C° 0 mm 6 mps 771 mmHg 80%
    12:00 +14°C° 0 mm 6 mps 771 mmHg 81%
    13:00 +14°C° 0 mm 6 mps 770 mmHg 82%
    14:00 +14°C° 0 mm 7 mps 770 mmHg 82%
    15:00 +14°C° 0 mm 7 mps 770 mmHg 82%
    16:00 +15°C° 0 mm 8 mps 770 mmHg 81%
    17:00 +13°C° 0 mm 8 mps 770 mmHg 84%
    18:00 +13°C° 0 mm 8 mps 770 mmHg 86%
    19:00 +14°C° 0 mm 7 mps 770 mmHg 89%
    20:00 +14°C° 0 mm 7 mps 770 mmHg 89%
    21:00 +14°C° 0 mm 7 mps 770 mmHg 90%
    22:00 +14°C° 0 mm 7 mps 770 mmHg 90%
    23:00 +14°C° 0 mm 7 mps 770 mmHg 91%

    24 September, Sunday

    Time Temperature Precipitation Wind Pressure Humidity
    00:00 +14°C° 0 mm 7 mps 770 mmHg 92%
    01:00 +12°C° 0 mm 7 mps 770 mmHg 92%
    02:00 +12°C° 0 mm 7 mps 770 mmHg 92%
    03:00 +12°C° 0 mm 7 mps 769 mmHg 93%
    04:00 +13°C° 0 mm 6 mps 769 mmHg 93%
    05:00 +12°C° 0 mm 7 mps 769 mmHg 91%
    06:00 +12°C° 0 mm 8 mps 769 mmHg 90%
    07:00 +12°C° 0 mm 8 mps 769 mmHg 89%
    08:00 +13°C° 0 mm 8 mps 770 mmHg 88%
    09:00 +13°C° 0 mm 8 mps 770 mmHg 87%
    10:00 +13°C° 0 mm 8 mps 770 mmHg 85%
    11:00 +14°C° 0 mm 7 mps 770 mmHg 83%
    12:00 +15°C° 0 mm 7 mps 770 mmHg 82%
    13:00 +15°C° 0 mm 6 mps 770 mmHg 80%
    14:00 +15°C° 0 mm 6 mps 770 mmHg 79%
    15:00 +15°C° 0 mm 6 mps 770 mmHg 78%
    16:00 +15°C° 0 mm 6 mps 770 mmHg 77%
    17:00 +15°C° 0 mm 7 mps 770 mmHg 80%
    18:00 +14°C° 0 mm 7 mps 770 mmHg 82%
    19:00 +13°C° 0 mm 8 mps 770 mmHg 85%
    20:00 +14°C° 0 mm 7 mps 770 mmHg 86%
    21:00 +14°C° 0 mm 7 mps 770 mmHg 87%
    22:00 +14°C° 0 mm 7 mps 771 mmHg 89%
    23:00 +14°C° 0 mm 7 mps 771 mmHg 89%
    Show more